Location: Bacharowice
(49.9333°N, 19.5833°E)
Time: 02:24:11
(UTC+00:00)

Cosmos 2315 Rocket - Pass Details

Date: 11 May 2021
Orbit: 965 x 1003 km, 82.9° (Epoch: 22 June)

Event Time Altitude Azimuth Distance (km) Brightness Sun altitude
Rises 19:41:34 0° 190° (S) 3,710 6.7 -11.6°
Reaches altitude 10° 19:44:05 10° 192° (SSW) 2,767 6.0 -11.9°
Maximum altitude 19:50:28 82° 280° (W) 1,020 4.2 -12.6°
Drops below altitude 10° 19:56:54 10° 8° (N) 2,786 7.0 -13.2°
Sets 19:59:26 0° 10° (N) 3,738 7.7 -13.5°
